BEIDOU-2 G8

Last updated on Sun Nov 16 2025 00:03:44 GMT+0000 (Coordinated Universal Time)

1 44231U 19027A 25319.54856948 -.00000239 00000+0 00000+0 0 9995 2 44231 1.5919 74.6275 0007927 255.8469 66.4510 1.00270625 23938
UTC large
Height (km)
Speed (km/s)
/
Latitude / Longitude
Inclination (degrees)
Orbital Period (minutes)
Azimuth
Elevation
Range (km)
Doppler Factor

Next 0 passes for location: London (51.5072 / 0.1276)

Sorry there are no passes over London.